Time,TemperatureF,DewpointF,PressureIn,WindDirection,WindDirectionDegrees,WindSpeedMPH,WindSpeedGustMPH,Humidity,HourlyPrecipIn,Conditions,Clouds,dailyrainin,SolarRadiationWatts/m^2,SoftwareType,DateUTC
2013-11-29 00:02:00,22.0,5.0,-100.00,NNW,341,2.0,8.0,48,0.00,,,0.00,0.000000,,2013-11-29 05:02:00,
2013-11-29 00:12:00,22.0,5.0,-100.00,NNW,341,2.0,8.0,48,0.00,,,0.00,0.000000,,2013-11-29 05:12:00,
2013-11-29 00:22:00,22.0,5.0,-100.00,NNW,341,2.0,8.0,48,0.00,,,0.00,0.000000,,2013-11-29 05:22:00,
2013-11-29 00:53:00,21.0,5.0,-100.00,NNW,343,3.0,8.0,50,0.00,,,0.00,0.000000,,2013-11-29 05:53:00,
2013-11-29 01:03:00,21.0,5.0,-100.00,NNW,343,3.0,8.0,50,0.00,,,0.00,0.000000,,2013-11-29 06:03:00,
2013-11-29 01:12:00,21.0,5.0,-100.00,NNW,343,3.0,8.0,50,0.00,,,0.00,0.000000,,2013-11-29 06:12:00,
2013-11-29 01:22:00,21.0,5.0,-100.00,NNW,343,3.0,8.0,50,0.00,,,0.00,0.000000,,2013-11-29 06:22:00,
2013-11-29 01:52:00,20.0,6.0,-100.00,West,273,4.0,7.0,53,0.00,,,0.00,0.000000,,2013-11-29 06:52:00,
2013-11-29 02:01:00,20.0,6.0,-100.00,West,273,4.0,7.0,53,0.00,,,0.00,0.000000,,2013-11-29 07:01:00,
2013-11-29 02:12:00,20.0,6.0,-100.00,West,273,4.0,7.0,53,0.00,,,0.00,0.000000,,2013-11-29 07:12:00,
2013-11-29 02:22:00,20.0,6.0,-100.00,West,273,4.0,7.0,53,0.00,,,0.00,0.000000,,2013-11-29 07:22:00,
2013-11-29 02:52:00,19.0,6.0,-100.00,North,2,3.0,8.0,56,0.00,,,0.00,0.000000,,2013-11-29 07:52:00,
2013-11-29 03:01:00,19.0,6.0,-100.00,North,2,3.0,8.0,56,0.00,,,0.00,0.000000,,2013-11-29 08:01:00,
2013-11-29 03:11:00,19.0,6.0,-100.00,North,2,3.0,8.0,56,0.00,,,0.00,0.000000,,2013-11-29 08:11:00,
2013-11-29 03:22:00,19.0,6.0,-100.00,North,2,3.0,8.0,56,0.00,,,0.00,0.000000,,2013-11-29 08:22:00,
2013-11-29 03:53:00,20.0,6.0,-100.00,West,263,4.0,6.0,54,0.00,,,0.00,0.000000,,2013-11-29 08:53:00,
2013-11-29 04:02:00,20.0,6.0,-100.00,West,263,4.0,6.0,54,0.00,,,0.00,0.000000,,2013-11-29 09:02:00,
2013-11-29 04:12:00,20.0,6.0,-100.00,West,263,4.0,6.0,54,0.00,,,0.00,0.000000,,2013-11-29 09:12:00,
2013-11-29 04:22:00,20.0,6.0,-100.00,West,263,4.0,6.0,54,0.00,,,0.00,0.000000,,2013-11-29 09:22:00,
2013-11-29 04:53:00,21.0,6.0,-100.00,North,3,3.0,9.0,52,0.00,,,0.00,0.000000,,2013-11-29 09:53:00,
2013-11-29 05:03:00,21.0,6.0,-100.00,North,3,3.0,9.0,52,0.00,,,0.00,0.000000,,2013-11-29 10:03:00,
2013-11-29 05:13:00,21.0,6.0,-100.00,North,3,3.0,9.0,52,0.00,,,0.00,0.000000,,2013-11-29 10:13:00,
2013-11-29 05:23:00,21.0,6.0,-100.00,North,3,3.0,9.0,52,0.00,,,0.00,0.000000,,2013-11-29 10:23:00,
2013-11-29 05:52:00,20.0,6.0,-100.00,NW,305,2.0,8.0,54,0.00,,,0.00,0.000000,,2013-11-29 10:52:00,
2013-11-29 06:02:00,20.0,6.0,-100.00,NW,305,2.0,8.0,54,0.00,,,0.00,0.000000,,2013-11-29 11:02:00,
2013-11-29 06:12:00,20.0,6.0,-100.00,NW,305,2.0,8.0,54,0.00,,,0.00,0.000000,,2013-11-29 11:12:00,
2013-11-29 06:22:00,20.0,6.0,-100.00,NW,305,2.0,8.0,54,0.00,,,0.00,0.000000,,2013-11-29 11:22:00,
2013-11-29 06:52:00,18.0,6.0,-100.00,North,2,2.0,5.0,59,0.00,,,0.00,0.000000,,2013-11-29 11:52:00,
2013-11-29 07:02:00,18.0,6.0,-100.00,North,2,2.0,5.0,59,0.00,,,0.00,0.000000,,2013-11-29 12:02:00,
2013-11-29 07:12:00,18.0,6.0,-100.00,North,2,2.0,5.0,59,0.00,,,0.00,0.000000,,2013-11-29 12:12:00,
2013-11-29 07:22:00,18.0,6.0,-100.00,North,2,2.0,5.0,59,0.00,,,0.00,0.000000,,2013-11-29 12:22:00,
2013-11-29 07:52:00,17.0,6.0,-100.00,North,3,2.0,5.0,61,0.00,,,0.00,7.000000,,2013-11-29 12:52:00,
2013-11-29 08:01:00,17.0,6.0,-100.00,North,3,2.0,5.0,61,0.00,,,0.00,7.000000,,2013-11-29 13:01:00,
2013-11-29 08:11:00,17.0,6.0,-100.00,North,3,2.0,5.0,61,0.00,,,0.00,7.000000,,2013-11-29 13:11:00,
2013-11-29 08:22:00,17.0,6.0,-100.00,North,3,2.0,5.0,61,0.00,,,0.00,7.000000,,2013-11-29 13:22:00,
2013-11-29 08:52:00,24.0,8.0,-100.00,North,2,4.0,8.0,50,0.00,,,0.00,117.000000,,2013-11-29 13:52:00,
2013-11-29 09:02:00,24.0,8.0,-100.00,North,2,4.0,8.0,50,0.00,,,0.00,117.000000,,2013-11-29 14:02:00,
2013-11-29 09:11:00,24.0,8.0,-100.00,North,2,4.0,8.0,50,0.00,,,0.00,117.000000,,2013-11-29 14:11:00,
2013-11-29 09:22:00,24.0,8.0,-100.00,North,2,4.0,8.0,50,0.00,,,0.00,117.000000,,2013-11-29 14:22:00,
2013-11-29 09:52:00,27.0,8.0,-100.00,WNW,301,5.0,12.0,43,0.00,,,0.00,260.000000,,2013-11-29 14:52:00,
2013-11-29 10:02:00,27.0,8.0,-100.00,WNW,301,5.0,12.0,43,0.00,,,0.00,260.000000,,2013-11-29 15:02:00,
2013-11-29 10:11:00,27.0,8.0,-100.00,WNW,301,5.0,12.0,43,0.00,,,0.00,260.000000,,2013-11-29 15:11:00,
2013-11-29 10:22:00,27.0,8.0,-100.00,WNW,301,5.0,12.0,43,0.00,,,0.00,260.000000,,2013-11-29 15:22:00,
2013-11-29 10:53:00,29.0,6.0,-100.00,NW,320,4.0,12.0,37,0.00,,,0.00,362.000000,,2013-11-29 15:53:00,
2013-11-29 11:03:00,29.0,6.0,-100.00,NW,320,4.0,12.0,37,0.00,,,0.00,362.000000,,2013-11-29 16:03:00,
2013-11-29 11:13:00,29.0,6.0,-100.00,NW,320,4.0,12.0,37,0.00,,,0.00,362.000000,,2013-11-29 16:13:00,
2013-11-29 11:23:00,29.0,6.0,-100.00,NW,320,4.0,12.0,37,0.00,,,0.00,362.000000,,2013-11-29 16:23:00,
2013-11-29 11:53:00,31.0,4.0,-100.00,West,279,6.0,12.0,31,0.00,,,0.00,414.000000,,2013-11-29 16:53:00,
2013-11-29 12:02:00,31.0,4.0,-100.00,West,279,6.0,12.0,31,0.00,,,0.00,414.000000,,2013-11-29 17:02:00,
2013-11-29 12:12:00,31.0,4.0,-100.00,West,279,6.0,12.0,31,0.00,,,0.00,414.000000,,2013-11-29 17:12:00,
2013-11-29 12:22:00,31.0,4.0,-100.00,West,279,6.0,12.0,31,0.00,,,0.00,414.000000,,2013-11-29 17:22:00,
2013-11-29 12:52:00,33.0,4.0,-100.00,NNW,339,5.0,13.0,29,0.00,,,0.00,427.000000,,2013-11-29 17:52:00,
2013-11-29 13:02:00,33.0,4.0,-100.00,NNW,339,5.0,13.0,29,0.00,,,0.00,427.000000,,2013-11-29 18:02:00,
2013-11-29 13:12:00,33.0,4.0,-100.00,NNW,339,5.0,13.0,29,0.00,,,0.00,427.000000,,2013-11-29 18:12:00,
2013-11-29 13:22:00,33.0,4.0,-100.00,NNW,339,5.0,13.0,29,0.00,,,0.00,427.000000,,2013-11-29 18:22:00,
2013-11-29 13:52:00,33.0,3.0,-100.00,North,357,4.0,13.0,28,0.00,,,0.00,347.000000,,2013-11-29 18:52:00,
2013-11-29 14:02:00,33.0,3.0,-100.00,North,357,4.0,13.0,28,0.00,,,0.00,347.000000,,2013-11-29 19:02:00,
2013-11-29 14:11:00,33.0,3.0,-100.00,North,357,4.0,13.0,28,0.00,,,0.00,347.000000,,2013-11-29 19:11:00,
2013-11-29 14:22:00,33.0,3.0,-100.00,North,357,4.0,13.0,28,0.00,,,0.00,347.000000,,2013-11-29 19:22:00,
2013-11-29 14:52:00,32.0,2.0,-100.00,North,2,5.0,11.0,27,0.00,,,0.00,271.000000,,2013-11-29 19:52:00,
2013-11-29 15:02:00,32.0,2.0,-100.00,North,2,5.0,11.0,27,0.00,,,0.00,271.000000,,2013-11-29 20:02:00,
2013-11-29 15:12:00,32.0,2.0,-100.00,North,2,5.0,11.0,27,0.00,,,0.00,271.000000,,2013-11-29 20:12:00,
2013-11-29 15:22:00,32.0,2.0,-100.00,North,2,5.0,11.0,27,0.00,,,0.00,271.000000,,2013-11-29 20:22:00,
2013-11-29 15:52:00,29.0,1.0,-100.00,WNW,300,3.0,10.0,30,0.00,,,0.00,67.000000,,2013-11-29 20:52:00,
2013-11-29 16:02:00,29.0,1.0,-100.00,WNW,300,3.0,10.0,30,0.00,,,0.00,67.000000,,2013-11-29 21:02:00,
2013-11-29 16:12:00,29.0,1.0,-100.00,WNW,300,3.0,10.0,30,0.00,,,0.00,67.000000,,2013-11-29 21:12:00,
2013-11-29 16:22:00,29.0,1.0,-100.00,WNW,300,3.0,10.0,30,0.00,,,0.00,67.000000,,2013-11-29 21:22:00,
2013-11-29 16:53:00,26.0,3.0,-100.00,North,2,2.0,10.0,37,0.00,,,0.00,10.000000,,2013-11-29 21:53:00,
2013-11-29 17:03:00,26.0,3.0,-100.00,North,2,2.0,10.0,37,0.00,,,0.00,10.000000,,2013-11-29 22:03:00,
2013-11-29 17:13:00,26.0,3.0,-100.00,North,2,2.0,10.0,37,0.00,,,0.00,10.000000,,2013-11-29 22:13:00,
2013-11-29 17:23:00,26.0,3.0,-100.00,North,2,2.0,10.0,37,0.00,,,0.00,10.000000,,2013-11-29 22:23:00,
2013-11-29 17:53:00,25.0,3.0,-100.00,NW,320,3.0,7.0,38,0.00,,,0.00,0.000000,,2013-11-29 22:53:00,
2013-11-29 18:02:00,25.0,3.0,-100.00,NW,320,3.0,7.0,38,0.00,,,0.00,0.000000,,2013-11-29 23:02:00,
2013-11-29 18:12:00,25.0,3.0,-100.00,NW,320,3.0,7.0,38,0.00,,,0.00,0.000000,,2013-11-29 23:12:00,
2013-11-29 18:22:00,25.0,3.0,-100.00,NW,320,3.0,7.0,38,0.00,,,0.00,0.000000,,2013-11-29 23:22:00,
2013-11-29 18:52:00,23.0,3.0,-100.00,WNW,289,3.0,6.0,42,0.00,,,0.00,0.000000,,2013-11-29 23:52:00,
2013-11-29 19:02:00,23.0,3.0,-100.00,WNW,289,3.0,6.0,42,0.00,,,0.00,0.000000,,2013-11-30 00:02:00,
2013-11-29 19:11:00,23.0,3.0,-100.00,WNW,289,3.0,6.0,42,0.00,,,0.00,0.000000,,2013-11-30 00:11:00,
2013-11-29 19:22:00,23.0,3.0,-100.00,WNW,289,3.0,6.0,42,0.00,,,0.00,0.000000,,2013-11-30 00:22:00,
2013-11-29 19:52:00,21.0,4.0,-100.00,West,272,2.0,4.0,46,0.00,,,0.00,0.000000,,2013-11-30 00:52:00,
2013-11-29 20:02:00,21.0,4.0,-100.00,West,272,2.0,4.0,46,0.00,,,0.00,0.000000,,2013-11-30 01:02:00,
2013-11-29 20:11:00,21.0,4.0,-100.00,West,272,2.0,4.0,46,0.00,,,0.00,0.000000,,2013-11-30 01:11:00,
2013-11-29 20:21:00,21.0,4.0,-100.00,West,272,2.0,4.0,46,0.00,,,0.00,0.000000,,2013-11-30 01:21:00,
2013-11-29 20:52:00,20.0,4.0,-100.00,WNW,303,2.0,5.0,50,0.00,,,0.00,0.000000,,2013-11-30 01:52:00,
2013-11-29 21:01:00,20.0,4.0,-100.00,WNW,303,2.0,5.0,50,0.00,,,0.00,0.000000,,2013-11-30 02:01:00,
2013-11-29 21:11:00,20.0,4.0,-100.00,WNW,303,2.0,5.0,50,0.00,,,0.00,0.000000,,2013-11-30 02:11:00,
2013-11-29 21:22:00,20.0,4.0,-100.00,WNW,303,2.0,5.0,50,0.00,,,0.00,0.000000,,2013-11-30 02:22:00,
2013-11-29 21:52:00,19.0,4.0,-100.00,North,2,2.0,5.0,51,0.00,,,0.00,0.000000,,2013-11-30 02:52:00,
2013-11-29 22:02:00,19.0,4.0,-100.00,North,2,2.0,5.0,51,0.00,,,0.00,0.000000,,2013-11-30 03:02:00,
2013-11-29 22:12:00,19.0,4.0,-100.00,North,2,2.0,5.0,51,0.00,,,0.00,0.000000,,2013-11-30 03:12:00,
2013-11-29 22:22:00,19.0,4.0,-100.00,North,2,2.0,5.0,51,0.00,,,0.00,0.000000,,2013-11-30 03:22:00,
2013-11-29 22:54:00,17.0,5.0,-100.00,North,2,2.0,4.0,58,0.00,,,0.00,0.000000,,2013-11-30 03:54:00,
2013-11-29 23:03:00,17.0,5.0,-100.00,North,2,2.0,4.0,58,0.00,,,0.00,0.000000,,2013-11-30 04:03:00,
2013-11-29 23:13:00,17.0,5.0,-100.00,North,2,2.0,4.0,58,0.00,,,0.00,0.000000,,2013-11-30 04:13:00,
2013-11-29 23:23:00,17.0,5.0,-100.00,North,2,2.0,4.0,58,0.00,,,0.00,0.000000,,2013-11-30 04:23:00,
2013-11-29 23:53:00,16.0,5.0,-100.00,North,2,2.0,5.0,61,0.00,,,0.00,0.000000,,2013-11-30 04:53:00,